Location: Ottawa
(45.4170°N, 75.7000°W)
Time: 05:03:00
(UTC-05:00)

Daily predictions for brighter satellites

Satellite Brightness Start Highest point End
(mag) Time Altitude Azimuth Time Altitude Azimuth Time Altitude Azimuth
SL-16 R/B 4.3 03:40:52 22° ENE 03:40:52 22° ENE 03:43:50 10° ESE
Cosmos 2297 Rocket 4.0 03:51:30 27° E 03:51:30 27° E 03:55:08 10° NE
USA 234 4.4 03:50:32 10° ENE 03:55:38 35° NNE 03:55:38 35° NNE
Cosmos 2227 Rocket 3.7 04:05:01 31° NE 04:05:01 31° NE 04:08:06 10° NE
Tsikada Rocket 4.5 04:19:32 42° NNE 04:21:31 58° ENE 04:27:43 10° SSE
Cosmos 2082 4.3 04:32:53 53° NE 04:32:53 53° NE 04:37:19 10° NNE
SeaSat 1 3.9 04:40:12 10° NNE 04:42:30 28° NNE 04:42:30 28° NNE
ADEOS II 4.4 04:40:01 10° N 04:40:34 13° N 04:40:34 13° N
Cosmos 1864 Rocket 4.4 04:42:41 10° S 04:48:48 84° E 04:55:01 10° N
Cosmos 1725 Rocket 3.9 04:42:33 10° S 04:48:49 85° E 04:55:10 10° N
SKYMED 2 4.4 04:47:02 10° SE 04:50:55 48° E 04:50:55 48° E
USA 229 DEB 3.6 04:50:54 69° WNW 04:51:44 78° SW 04:58:57 10° SSE
USA 229 3.6 04:50:57 69° WNW 04:51:50 79° SW 04:59:03 10° SSE
Cosmos 304 Rocket 3.7 05:04:55 80° ENE 05:04:55 80° ENE 05:09:40 10° SSE
NOSS 3-1 (A) 4.5 05:00:53 26° NNW 05:05:14 56° NE 05:13:19 10° ESE
ATLAS 2AS CENTAUR R/B 4.4 05:07:56 16° NNW 05:13:16 31° NNE 05:20:07 10° E
ISS -1.4 05:16:07 27° SE 05:16:07 27° SE 05:17:47 10° SE
Cosmos 2058 4.0 05:15:44 13° N 05:19:07 43° ENE 05:23:03 10° SSE
Cosmos 2237 Rocket 4.0 05:22:48 16° SSW 05:22:48 16° SSW 05:24:09 10° SSW
Genesis I 4.1 05:18:47 39° NNE 05:19:23 43° NE 05:23:08 10° ESE
SL-16 R/B 2.2 05:22:48 53° WNW 05:23:41 60° WSW 05:29:15 10° S
SL-8 R/B 3.7 05:25:58 60° NW 05:26:44 73° NNE 05:31:33 10° E
Feng Yun 1-1 Rocket 4.4 05:25:32 10° N 05:30:43 47° WNW 05:31:23 45° W
Cosmos 2297 Rocket 2.4 05:33:22 44° W 05:34:07 46° WNW 05:39:36 10° NNE
Cosmos 1842 Rocket 3.4 05:33:46 10° SSW 05:38:04 65° W 05:42:26 10° N
Cosmos 2233 Rocket 3.9 05:31:58 10° SSW 05:38:09 66° W 05:44:28 10° N
USA 234 3.4 05:32:18 10° ESE 05:38:49 69° NNE 05:42:59 24° NW
COSMO-SKYMED 1 2.6 05:35:00 10° S 05:39:13 52° W 05:39:29 51° W
Cosmos 2151 2.8 05:39:27 24° NNW 05:41:57 78° W 05:46:10 10° S
Meteor 1-11 4.2 05:36:14 10° N 05:42:06 88° W 05:47:55 10° S
ERBS 2.1 05:44:40 73° W 05:44:52 77° SW 05:48:16 10° SE
Cosmos 1538 Rocket 4.0 05:41:35 24° NNW 05:44:54 69° WSW 05:50:13 10° S
Cosmos 1805 Rocket 4.4 05:41:07 10° N 05:45:28 52° ENE 05:49:45 10° SSE
NOSS 3-1 (C) 4.0 05:41:10 21° NW 05:46:35 80° SW 05:54:54 10° SSE
Cosmos 2227 Rocket 3.0 05:46:53 30° NW 05:46:57 30° NW 05:51:55 10° N
Cosmos 1340 Rocket 2.7 05:44:22 19° N 05:47:10 88° E 05:51:08 10° S
Meteor 1-4 Rocket 2.7 05:48:27 51° WNW 05:48:27 51° WNW 05:51:59 10° N
Meteor 1-16 Rocket 4.0 05:45:04 10° SSW 05:50:29 79° W 05:55:51 10° N
Cosmos 1271 Rocket 2.6 05:48:24 10° S 05:52:13 89° W 05:56:02 10° N
Cosmos 923 Rocket 4.3 05:47:10 10° NNW 05:52:24 67° ENE 05:57:37 10° SSE
Cosmos 1500 Rocket 4.0 05:52:33 37° WNW 05:53:07 39° W 05:57:15 10° SSW
Meteor 1-28 Rocket 3.3 05:51:04 10° S 05:54:43 50° W 05:55:51 36° NW
Ariane Rocket 2.9 05:50:56 10° NNE 05:56:04 83° WNW 06:01:10 10° SSW
SL-14 R/B 3.5 05:55:40 27° NNW 05:57:33 49° W 06:01:28 10° S
Cosmos 2034 Rocket 4.5 05:51:36 10° S 05:57:40 63° E 06:03:50 10° NNE
Cosmos 292 Rocket 4.1 05:55:47 10° NNW 06:00:34 68° ENE 06:05:20 10° SSE
Cosmos 1680 Rocket 4.0 05:56:02 10° NNW 06:01:19 62° ENE 06:06:34 10° SSE
Cosmos 220 Rocket 4.4 06:01:45 17° SW 06:04:48 40° WNW 06:08:58 10° N
Cosmos 1626 2.5 06:02:33 10° N 06:06:17 65° E 06:09:59 10° SSE
Cosmos 1943 3.8 06:01:00 10° NNW 06:06:40 58° ENE 06:12:16 10° SE
Sich 1 3.5 06:06:24 10° N 06:10:46 62° E 06:15:02 10° SSE
SMAP 4.0 06:06:40 10° NNE 06:11:13 50° E 06:15:44 10° S
Cosmos 1633 Rocket 3.7 06:08:38 10° N 06:12:57 58° ENE 06:17:14 10° SSE
CZ-2C R/B 2.8 06:09:55 10° NNE 06:14:29 62° E 06:19:00 10° S
Meteor 2-1 Rocket 4.2 06:08:54 10° SSW 06:14:31 77° W 06:20:18 10° N
ATLAS CENTAUR R/B 4.0 06:14:04 13° NNW 06:17:04 25° NNE 06:24:26 10° ENE
CZ-4 R/B 1.5 06:15:40 10° NNE 06:19:43 78° ESE 06:23:50 10° S
Cosmos 389 Rocket 3.9 06:17:01 10° SSE 06:20:31 44° E 06:24:02 10° NNE
SeaSat 1 4.1 06:19:10 10° N 06:21:54 15° NW 06:22:19 15° NW
PAYLOAD A 3.9 06:17:27 10° N 06:22:33 76° WNW 06:27:25 10° SSW
CSL-04 Debris 4.1 06:17:06 10° N 06:22:36 71° WNW 06:28:01 10° SSW
Tiangong 2 4.2 06:24:11 10° S 06:25:24 12° SSE 06:26:36 10° SE
Cosmos 1603 3.9 06:22:14 10° NW 06:27:37 49° WSW 06:33:01 10° S
Cosmos 1464 Rocket 4.0 06:22:23 10° SSW 06:28:38 60° WNW 06:34:51 10° N
Cosmos 968 Rocket 4.2 06:25:12 10° WSW 06:29:56 33° WNW 06:34:41 10° N
YAOGAN 1 2.9 06:27:03 10° NNE 06:31:24 70° ESE 06:35:42 10° S
Cosmos 2263 Rocket 3.3 06:30:10 10° S 06:35:34 48° ESE 06:41:03 10° NE
Cosmos 2112 Rocket 4.0 06:30:36 10° NNW 06:35:57 80° WSW 06:41:17 10° SSE
Cosmos 1908 3.3 06:35:06 10° S 06:38:56 82° E 06:42:47 10° N
Coronas F rocket 0.8 06:36:35 10° NNW 06:38:59 71° W 06:41:22 10° S
MSX 4.1 06:38:10 10° NNE 06:43:56 74° ESE 06:49:43 10° S
Cosmos 1666 Rocket 3.7 06:39:40 10° NNW 06:44:01 54° W 06:48:23 10° S
CZ-4 R/B 4.5 06:44:39 10° NNE 06:48:48 86° E 06:52:56 10° SSW
Cosmos 2221 3.3 06:46:52 10° SW 06:50:40 29° WNW 06:54:28 10° NNW
CSL-04 Rocket 4.2 06:46:51 10° N 06:51:38 35° WNW 06:56:21 10° SW
Cosmos 2058 4.5 06:53:07 10° NW 06:55:41 16° W 06:58:16 10° SW
Cosmos 1933 Rocket 3.8 06:51:12 10° N 06:55:41 77° E 07:00:06 10° SSE
APEX 4.1 06:54:33 10° S 06:58:21 48° ESE 07:01:26 10° NE
Cosmos 1184 Rocket 3.8 06:55:37 10° NNW 06:58:30 28° W 07:01:21 10° SSW
SPOT 3 Rocket 3.5 06:54:25 10° N 06:59:38 73° WNW 07:04:49 10° SSW
Cosmos 1300 3.8 07:01:16 10° S 07:04:57 49° E 07:08:41 10° NNE
ATLAS 2AS CENTAUR R/B 3.2 06:57:21 10° NW 07:05:32 82° NE 07:13:09 10° SE
